Lemoore NAS, CA

12:21 PM PDT on April 25, 2017 (GMT -0700)
Lemoore Naval Air Station

Weather History for KNLC - January, 2014

Change the Weather History Date:

Wednesday, January 15, 2014

  Actual Average Record
Temperature  
Mean Temperature 50 °F -  
Max Temperature 70 °F 52 °F 70 °F (2014)
Min Temperature 30 °F 38 °F 18 °F (2007)
Degree Days  
Heating Degree Days 15    
Moisture  
Dew Point 31 °F    
Average Humidity 61    
Maximum Humidity 85    
Minimum Humidity 32    
Precipitation  
Precipitation 0.00 in - - ()
Sea Level Pressure  
Sea Level Pressure 30.32 in    
Wind  
Wind Speed 3 mph (SSE)    
Max Wind Speed 9 mph    
Max Gust Speed -    
Visibility 5 miles    
Events Fog    
Averages and records for this station are not official NWS values.
T = Trace of Precipitation, MM = Missing Value Source: NWS Daily Summary

Daily Weather History Graph

Daily Weather History Graph

Search for Another Location

Airport or City:

Trip Planner

Search our weather history database for the weather conditions in past years. The results will help you decide how hot, cold, wet, or windy it might be!

Date:

Astronomy

Jan. 15, 2014 Rise Set
Actual Time 7:10 AM PST 5:08 PM PST
Civil Twilight 6:42 AM PST 5:36 PM PST
Nautical Twilight 6:10 AM PST 6:08 PM PST
Astronomical Twilight 5:39 AM PST 6:39 PM PST
Moon 5:08 PM PST (1/15) 6:31 AM PST (1/15)
Length of Visible Light 10h 54m
Length of Day
9h 58m
Full, 100% of the Moon is Illuminated
Jan 15
Full
Jan 15
Full
Jan 23
Last Quarter
Jan 30
New
Feb 6
First Quarter

Hourly Weather History & Observations

Time (PST) Temp. Windchill Dew Point Humidity Pressure Visibility Wind Dir Wind Speed Gust Speed Precip Events Conditions
12:56 AM 39.0 °F 36.8 °F 28.0 °F 65% 30.38 in 8.0 mi ESE 3.5 mph - N/A   Clear
1:56 AM 36.0 °F 32.1 °F 27.0 °F 70% 30.37 in 6.0 mi SE 4.6 mph - N/A   Haze
2:56 AM 36.0 °F 30.3 °F 28.0 °F 73% 30.37 in 6.0 mi South 6.9 mph - N/A   Haze
3:56 AM 36.0 °F 29.0 °F 30.0 °F 79% 30.36 in 4.0 mi South 9.2 mph - N/A   Haze
4:56 AM 36.0 °F 33.3 °F 30.0 °F 79% 30.35 in 4.0 mi SSE 3.5 mph - N/A   Haze
5:42 AM 35.1 °F 31.0 °F 28.9 °F 78% 30.35 in 1.8 mi East 4.6 mph - N/A   Haze
5:56 AM 35.1 °F 31.0 °F 30.9 °F 85% 30.36 in 2.5 mi East 4.6 mph - N/A   Clear
6:28 AM 30.9 °F 27.5 °F 24.1 °F 76% 30.35 in 3.0 mi SSE 3.5 mph - N/A   Haze
6:45 AM 32.0 °F 28.7 °F 26.1 °F 79% 30.35 in 0.8 mi SSE 3.5 mph - N/A   Haze
6:56 AM 32.0 °F 28.7 °F 27.0 °F 82% 30.37 in 1.0 mi South 3.5 mph - N/A   Haze
7:03 AM 32.0 °F - 27.0 °F 82% 30.36 in 0.8 mi Calm Calm - N/A   Haze
7:42 AM 30.9 °F - 27.0 °F 85% 30.36 in 0.5 mi Calm Calm - N/A Fog Light Freezing Fog
7:56 AM 32.0 °F - 28.0 °F 85% 30.37 in 0.8 mi Calm Calm - N/A   Mostly Cloudy
8:16 AM 37.9 °F - 32.0 °F 79% 30.37 in 2.0 mi Calm Calm - N/A   Haze
8:31 AM 42.1 °F 40.2 °F 35.1 °F 76% 30.38 in 3.0 mi SSE 3.5 mph - N/A   Haze
8:56 AM 45.0 °F 43.5 °F 35.1 °F 68% 30.39 in 4.0 mi SE 3.5 mph - N/A   Haze
9:56 AM 52.0 °F - 37.0 °F 57% 30.39 in 4.0 mi Calm Calm - N/A   Haze
10:56 AM 57.9 °F - 39.0 °F 49% 30.37 in 4.0 mi Calm Calm - N/A   Haze
11:56 AM 62.1 °F - 39.9 °F 44% 30.33 in 4.0 mi Calm Calm - N/A   Haze
12:56 PM 66.0 °F - 37.9 °F 36% 30.29 in 5.0 mi Calm Calm - N/A   Haze
1:56 PM 68.0 °F - 37.9 °F 33% 30.26 in 5.0 mi Calm Calm - N/A   Haze
2:56 PM 69.1 °F - 39.9 °F 35% 30.26 in 5.0 mi East 4.6 mph - N/A   Haze
3:56 PM 70.0 °F - 39.0 °F 32% 30.26 in 6.0 mi Calm Calm - N/A   Haze
4:56 PM 64.9 °F - 36.0 °F 34% 30.26 in 6.0 mi North 3.5 mph - N/A   Haze
5:56 PM 61.0 °F - 36.0 °F 39% 30.25 in 7.0 mi Calm Calm - N/A   Clear
6:56 PM 54.0 °F - 30.0 °F 40% 30.25 in 8.0 mi Calm Calm - N/A   Clear
7:56 PM 51.1 °F - 33.1 °F 50% 30.26 in 7.0 mi Calm Calm - N/A   Clear
8:56 PM 45.0 °F 42.6 °F 28.0 °F 52% 30.26 in 8.0 mi Variable 4.6 mph - N/A   Clear
9:56 PM 45.0 °F 41.2 °F 26.1 °F 48% 30.27 in 10.0 mi WSW 6.9 mph - N/A   Clear
10:56 PM 43.0 °F 38.2 °F 24.1 °F 47% 30.26 in 10.0 mi WSW 8.1 mph - N/A   Clear
11:56 PM 43.0 °F 38.8 °F 25.0 °F 49% 30.25 in 10.0 mi WSW 6.9 mph - N/A   Clear